Location: Libas
(9.8833°N, 125.9833°E)
Time: 21:33:47
(UTC+00:00)

Cosmos 1356 Rocket - Pass Details

Date: 27 October 2020
Orbit: 542 x 599 km, 81.2° (Epoch: 25 November)

Event Time Altitude Azimuth Distance (km) Brightness Sun altitude
Exits shadow 19:40:58 53° 64° (ENE) 693 4.0 -26.1°
Maximum altitude 19:41:17 55° 84° (E) 680 4.0 -26.1°
Drops below altitude 10° 19:45:15 10° 162° (SSE) 1,837 6.3 -25.1°
Sets 19:47:26 0° 167° (SSE) 2,723 7.2 -24.6°
